Greenville, ME

5:42 PM EDT on June 22, 2017 (GMT -0400)
Greenville

Weather History for KGNR - May, 2013

Change the Weather History Date:

Monday, May 27, 2013

  Actual Average (KMLT) Record (KMLT)
Temperature  
Mean Temperature 47 °F -  
Max Temperature 57 °F 64 °F 91 °F (1914)
Min Temperature 37 °F 43 °F 25 °F (1915)
Degree Days  
Heating Degree Days 18    
Moisture  
Dew Point 33 °F    
Average Humidity 61    
Maximum Humidity 89    
Minimum Humidity 33    
Precipitation  
Precipitation 0.00 in - - ()
Sea Level Pressure  
Sea Level Pressure 30.00 in    
Wind  
Wind Speed 10 mph (NW)    
Max Wind Speed 18 mph    
Max Gust Speed 30 mph    
Averages and records for this station are not official NWS values.
T = Trace of Precipitation, MM = Missing Value Source: NWS Daily Summary

Daily Weather History Graph

Daily Weather History Graph

Search for Another Location

Airport or City:

Trip Planner

Search our weather history database for the weather conditions in past years. The results will help you decide how hot, cold, wet, or windy it might be!

Date:

Astronomy

May. 27, 2013 Rise Set
Actual Time 4:56 AM EDT 8:15 PM EDT
Civil Twilight 4:20 AM EDT 8:51 PM EDT
Nautical Twilight 3:32 AM EDT 9:39 PM EDT
Astronomical Twilight 2:33 AM EDT 10:38 PM EDT
Moon 10:48 PM EDT (5/27) 7:31 AM EDT (5/27)
Length of Visible Light 16h 31m
Length of Day
15h 19m
Waning Gibbous, 91% of the Moon is Illuminated
May 27
Waning Gibbous
May 31
Last Quarter
Jun 8
New
Jun 16
First Quarter
Jun 23
Full

Hourly Weather History & Observations

Time (EDT) Temp. Windchill Dew Point Humidity Pressure Visibility Wind Dir Wind Speed Gust Speed Precip Events Conditions
12:56 AM 39.0 °F 34.0 °F 36.0 °F 89% 29.91 in - Variable 6.9 mph - N/A   Unknown
1:56 AM 37.9 °F 32.1 °F 35.1 °F 89% 29.90 in - NNW 8.1 mph - N/A   Unknown
2:56 AM 37.9 °F 30.0 °F 34.0 °F 86% 29.89 in - NW 12.7 mph 21.9 mph N/A   Unknown
3:56 AM 37.9 °F 31.5 °F 34.0 °F 86% 29.92 in - NW 9.2 mph 16.1 mph N/A   Unknown
4:56 AM 37.0 °F 29.8 °F 34.0 °F 89% 29.94 in - NW 10.4 mph 20.7 mph N/A   Unknown
5:56 AM 39.0 °F 32.8 °F 34.0 °F 82% 29.95 in - NW 9.2 mph - N/A   Unknown
6:56 AM 43.0 °F 37.7 °F 34.0 °F 71% 29.96 in - NNW 9.2 mph 19.6 mph N/A   Unknown
7:56 AM 45.0 °F 40.1 °F 34.0 °F 65% 29.98 in - NW 9.2 mph 21.9 mph N/A   Unknown
8:56 AM 46.9 °F - 32.0 °F 56% 29.98 in - NNW 13.8 mph 23.0 mph N/A   Unknown
9:56 AM 46.9 °F - 33.1 °F 59% 29.99 in - NW 11.5 mph 25.3 mph N/A   Unknown
10:56 AM 51.1 °F - 33.1 °F 50% 29.98 in - NW 18.4 mph 29.9 mph N/A   Unknown
11:56 AM 53.1 °F - 33.1 °F 47% 29.99 in - NNW 16.1 mph 25.3 mph N/A   Unknown
12:56 PM 55.0 °F - 30.9 °F 40% 29.99 in - NW 17.3 mph 27.6 mph N/A   Unknown
1:56 PM 55.9 °F - 30.9 °F 39% 30.00 in - NW 17.3 mph 26.5 mph N/A   Unknown
2:56 PM 57.0 °F - 30.0 °F 36% 30.00 in - NNW 13.8 mph 27.6 mph N/A   Unknown
3:56 PM 57.0 °F - 32.0 °F 39% 30.01 in - NW 10.4 mph 25.3 mph N/A   Unknown
4:56 PM 57.9 °F - 28.9 °F 33% 30.03 in - NW 12.7 mph 23.0 mph N/A   Unknown
5:56 PM 55.9 °F - 30.0 °F 37% 30.04 in - NW 12.7 mph 25.3 mph N/A   Unknown
6:56 PM 55.9 °F - 28.9 °F 36% 30.06 in - NW 9.2 mph 20.7 mph N/A   Unknown
7:56 PM 50.0 °F - 33.1 °F 52% 30.09 in - Calm Calm - N/A   Unknown
8:56 PM 48.0 °F - 35.1 °F 61% 30.10 in - Calm Calm - N/A   Unknown
9:56 PM 45.0 °F - 36.0 °F 71% 30.12 in - Calm Calm - N/A   Unknown
10:56 PM 42.1 °F 40.2 °F 36.0 °F 79% 30.13 in - East 3.5 mph - N/A   Unknown
11:56 PM 41.0 °F - 35.1 °F 79% 30.15 in - Calm Calm - N/A   Unknown